McKinney, TX

1:58 AM CST on November 21, 2019 (GMT -0600)
Collin County Regional

Weather History for KTKI - October, 2019

Change the Weather History Date:

Tuesday, October 22, 2019

  Actual Average (KADS) Record (KADS)
Temperature  
Mean Temperature 58 °F -  
Max Temperature 73 °F 73 °F 93 °F (2003)
Min Temperature 44 °F 56 °F 41 °F (2006)
Degree Days  
Heating Degree Days 6    
Growing Degree Days 8 (Base 50)    
Moisture  
Dew Point 37 °F    
Average Humidity 54    
Maximum Humidity 93    
Minimum Humidity 19    
Precipitation  
Precipitation 0.00 in - - ()
Sea Level Pressure  
Sea Level Pressure 30.18 in    
Wind  
Wind Speed 2 mph ()    
Max Wind Speed 7 mph    
Max Gust Speed -    
Visibility 10.0 miles    
Events      
Averages and records for this station are not official NWS values.
T = Trace of Precipitation, MM = Missing Value Source: Averaged Metar Reports

Daily Weather History Graph

Daily Weather History Graph

Search for Another Location

Airport or City:

Astronomy

Oct. 22, 2019 Rise Set
Actual Time 7:36 AM CDT 6:45 PM CDT
Civil Twilight 7:10 AM CDT 7:10 PM CDT
Nautical Twilight 6:41 AM CDT 7:39 PM CDT
Astronomical Twilight 6:13 AM CDT 8:07 PM CDT
Moon 1:12 AM CDT (10/22) 3:31 PM CDT (10/22)
Length of Visible Light 11h 59m
Length of Day
11h 08m
Last Quarter, 37% of the Moon is Illuminated
Oct 22
Last Quarter
Oct 27
New
Nov 4
First Quarter
Nov 12
Full
Nov 19
Last Quarter

Hourly Weather History & Observations

Time (CDT) Temp. Windchill Dew Point Humidity Pressure Visibility Wind Dir Wind Speed Gust Speed Precip Events Conditions
12:53 AM 48.0 °F - 45.0 °F 89% 30.09 in 10.0 mi Calm Calm - N/A   Clear
1:53 AM 45.0 °F 41.8 °F 43.0 °F 93% 30.09 in 10.0 mi North 5.8 mph - N/A   Clear
2:53 AM 46.0 °F 43.1 °F 43.0 °F 89% 30.12 in 10.0 mi North 5.8 mph - N/A   Clear
3:53 AM 46.0 °F - 42.1 °F 86% 30.12 in 10.0 mi Calm Calm - N/A   Clear
4:53 AM 52.0 °F - 37.0 °F 57% 30.13 in 10.0 mi NNW 6.9 mph - N/A   Clear
5:53 AM 45.0 °F 41.2 °F 37.9 °F 76% 30.18 in 10.0 mi NNW 6.9 mph - N/A   Clear
6:53 AM 48.0 °F - 36.0 °F 63% 30.20 in 10.0 mi WNW 3.5 mph - N/A   Clear
7:53 AM 44.1 °F - 39.0 °F 82% 30.23 in 10.0 mi Calm Calm - N/A   Clear
8:53 AM 51.1 °F - 42.1 °F 71% 30.25 in 10.0 mi Calm Calm - N/A   Clear
9:53 AM 59.0 °F - 36.0 °F 42% 30.28 in 10.0 mi North 5.8 mph - N/A   Clear
10:53 AM 64.9 °F - 33.1 °F 31% 30.28 in 10.0 mi NNE 6.9 mph - N/A   Clear
11:53 AM 66.0 °F - 28.0 °F 24% 30.28 in 10.0 mi Calm Calm - N/A   Clear
12:53 PM 70.0 °F - 28.0 °F 21% 30.27 in 10.0 mi NW 4.6 mph - N/A   Clear
1:53 PM 72.0 °F - 28.9 °F 20% 30.23 in 10.0 mi NE 5.8 mph - N/A   Clear
2:53 PM 71.1 °F - 27.0 °F 19% 30.20 in 10.0 mi Calm Calm - N/A   Clear
3:53 PM 73.0 °F - 28.0 °F 19% 30.17 in 10.0 mi Calm Calm - N/A   Clear
4:53 PM 72.0 °F - 27.0 °F 19% 30.16 in 10.0 mi SSE 4.6 mph - N/A   Clear
5:53 PM 71.1 °F - 30.0 °F 22% 30.14 in 10.0 mi Calm Calm - N/A   Clear
6:53 PM 62.1 °F - 41.0 °F 46% 30.15 in 10.0 mi SE 3.5 mph - N/A   Clear
7:53 PM 59.0 °F - 43.0 °F 55% 30.16 in 10.0 mi Calm Calm - N/A   Clear
8:53 PM 55.9 °F - 42.1 °F 60% 30.14 in 10.0 mi Calm Calm - N/A   Clear
9:53 PM 53.1 °F - 44.1 °F 71% 30.13 in 10.0 mi Calm Calm - N/A   Clear
10:53 PM 51.1 °F - 44.1 °F 77% 30.13 in 10.0 mi Calm Calm - N/A   Clear
11:53 PM 53.1 °F - 43.0 °F 69% 30.11 in 10.0 mi Calm Calm - N/A   Clear